TimeMST,TemperatureF,Dew PointF,Humidity,Sea Level PressureIn,VisibilityMPH,Wind Direction,Wind SpeedMPH,Gust SpeedMPH,PrecipitationIn,Events,Conditions,WindDirDegrees,DateUTC
12:17 AM,21.2,19.4,93,29.63,2.0,Calm,Calm,-,0.00,Snow,Light Snow,0,2013-01-29 07:17:00
12:39 AM,21.2,19.4,93,29.62,2.0,Calm,Calm,-,0.00,Snow,Light Snow,0,2013-01-29 07:39:00
12:49 AM,21.2,19.4,93,29.62,1.8,Calm,Calm,-,0.00,Snow,Light Snow,0,2013-01-29 07:49:00
12:53 AM,21.9,19.0,89,29.74,1.2,Calm,Calm,-,0.00,Snow,Light Snow,0,2013-01-29 07:53:00
1:04 AM,21.2,17.6,86,29.63,0.8,Calm,Calm,-,0.01,Snow,Light Snow,0,2013-01-29 08:04:00
1:22 AM,21.2,17.6,86,29.62,1.2,Calm,Calm,-,0.02,Snow,Light Snow,0,2013-01-29 08:22:00
1:27 AM,21.2,17.6,86,29.62,3.0,Calm,Calm,-,0.02,Snow,Light Snow,0,2013-01-29 08:27:00
1:38 AM,21.2,17.6,86,29.62,9.0,Calm,Calm,-,0.02,,Overcast,0,2013-01-29 08:38:00
1:53 AM,19.9,16.0,85,29.75,10.0,Calm,Calm,-,0.02,,Overcast,0,2013-01-29 08:53:00
2:53 AM,17.1,14.0,88,29.75,10.0,West,6.9,-,N/A,,Mostly Cloudy,270,2013-01-29 09:53:00
3:53 AM,17.1,12.9,84,29.76,10.0,Calm,Calm,-,N/A,,Overcast,0,2013-01-29 10:53:00
4:53 AM,16.0,12.0,84,29.75,10.0,West,4.6,-,N/A,,Clear,280,2013-01-29 11:53:00
5:53 AM,14.0,10.9,88,29.76,10.0,Calm,Calm,-,N/A,,Clear,0,2013-01-29 12:53:00
6:53 AM,12.0,8.1,84,29.78,10.0,WNW,4.6,-,N/A,,Clear,300,2013-01-29 13:53:00
7:53 AM,14.0,7.0,74,29.78,10.0,WNW,4.6,-,N/A,,Clear,300,2013-01-29 14:53:00
8:53 AM,18.0,10.0,71,29.77,10.0,NW,3.5,-,N/A,,Clear,320,2013-01-29 15:53:00
9:53 AM,23.0,10.0,58,29.76,10.0,Variable,4.6,-,N/A,,Clear,0,2013-01-29 16:53:00
10:53 AM,25.0,8.1,49,29.76,10.0,Variable,6.9,-,N/A,,Clear,0,2013-01-29 17:53:00
11:53 AM,25.0,8.1,49,29.77,10.0,North,11.5,16.1,N/A,,Scattered Clouds,350,2013-01-29 18:53:00
12:53 PM,24.1,7.0,48,29.78,10.0,Variable,5.8,-,N/A,,Mostly Cloudy,0,2013-01-29 19:53:00
1:53 PM,25.0,7.0,46,29.79,10.0,NW,6.9,-,N/A,,Overcast,310,2013-01-29 20:53:00
2:53 PM,24.1,9.0,53,29.82,10.0,North,8.1,19.6,0.00,,Overcast,360,2013-01-29 21:53:00
3:53 PM,23.0,9.0,55,29.85,10.0,NW,5.8,-,N/A,,Scattered Clouds,310,2013-01-29 22:53:00
4:53 PM,21.0,9.0,60,29.89,10.0,NNW,4.6,-,N/A,,Mostly Cloudy,340,2013-01-29 23:53:00
5:53 PM,19.0,10.0,68,29.95,10.0,Calm,Calm,-,N/A,,Overcast,0,2013-01-30 00:53:00
6:24 PM,17.6,8.6,68,29.77,10.0,North,5.8,-,0.00,,Scattered Clouds,360,2013-01-30 01:24:00
6:53 PM,15.1,5.0,64,29.99,10.0,North,6.9,-,0.00,,Clear,350,2013-01-30 01:53:00
7:53 PM,12.9,3.9,67,30.00,10.0,Variable,3.5,-,N/A,,Clear,0,2013-01-30 02:53:00
8:53 PM,10.9,1.9,67,30.00,10.0,Variable,5.8,-,N/A,,Clear,0,2013-01-30 03:53:00
9:53 PM,8.1,-0.0,70,29.99,10.0,North,4.6,-,N/A,,Clear,10,2013-01-30 04:53:00
10:53 PM,6.1,-0.0,76,29.99,10.0,West,3.5,-,N/A,,Overcast,280,2013-01-30 05:53:00
11:53 PM,7.0,-0.0,73,29.99,9.0,East,3.5,-,N/A,,Overcast,80,2013-01-30 06:53:00